Weather in Huaraz

Peru     9°31′59″S   77°31′54″W
temp.,
°C
wind,
m/s
gust,
m/s
humid.,
%
clouds,
%
prec.,
mm/h
press.,
hPa
HPBL,
m
10 may, mon
mon1001:00+2ene34875 0.2 102262
04:00+1e338667 0.0 102153
07:00+2e348112 0.0 1023131
10:00+9ene335436 0.0 10191340
13:00+12ne344796 0.3 10141849
16:00+11ene445264 0.4 10121465
19:00+5ene337944 0.9 101952
22:00+3ene348934 0.1 102398
11 may, tue
tue1101:00+2e338760 0.1 102388
04:00+1e338722 0.0 102248
07:00+2e34804 0.0 1023106
10:00+10ene23485 0.0 10181328
13:00+13ne234294 0.0 10122128
16:00+11nnw235190 0.6 10111471
19:00+5nne228558 1.0 101736
22:00+4ene348755 0.1 1021120
12 may, wed
wed1201:00+3ene348534 0.1 1020150
04:00+4ene338173 0.0 1019140
07:00+4ene348283 0.0 1021204
10:00+9ene335747 0.0 10181371
13:00+10ne2254100 0.1 10151381
16:00+10n125776 0.3 10131014
19:00+6nnw128285 0.9 101790
22:00+5ne228849 0.5 102050
13 may, thu
thu1301:00+5ene338568 0.7 1020243
04:00+4ene338450 0.1 1020134
07:00+4ene348233 0.1 1022213
10:00+9ene336072 0.1 10191357
13:00+10nnw1256100 0.2 10161242
16:00+9wnw126766 0.3 1015776
19:00+5n128455 0.4 101863
22:00+6ene118268 0.1 102052
14 may, fri
fri1401:00+6ene227895 0.1 101968
04:00+5ne237795 0.1 101882
07:00+5ene337873 0.1 1020118
10:00+10ene235058 0.1 10181645
13:00+12nnw124798 0.3 10141718
16:00+11nw225361 0.8 10121346
19:00+7nw117850 1.8 101753
22:00+4ene33863 0.1 102133